Date String (YYYY-MM-DD hh:mm:ss) UTC,Instrument flags,Ambient pressure (hPa),Sample flow (lpm),Bypass flow (lpm),Sample temperature (°C),Ambient temperature (°C),ASC tube jacket temperature (°C),LED temperature (°C),Box temperature (°C),Sample RH (%),Span deviation,Mass concentration (μg/m³),Mass concentration (μg/m³),Mass concentration (μg/m³)
DateTimeUTC,F1_M11,P_M11,Q1_M11,Q2_M11,T1_M11,T2_M11,T3_M11,T4_M11,T5_M11,U1_M11,ZSPAN_M11,X0_M11,X2_M11,X1_M11
2022-12-06 04:00:00,,0818.2,5.00,0.00,21.4,19.8,00.0,30.5,23.1,15.8,0000.0,0005.65,0001.85,0001.01
2022-12-06 04:01:00,,0818.2,5.00,0.00,21.4,19.8,00.0,30.4,23.1,15.6,0000.0,0006.80,0001.80,0000.99
2022-12-06 04:02:00,,0818.3,5.00,0.00,21.4,19.8,00.0,30.4,23.1,15.6,0000.0,0006.20,0001.81,0000.98
2022-12-06 04:03:00,,0818.3,5.00,0.00,21.4,19.8,00.0,30.4,23.1,15.7,0000.0,0006.31,0001.83,0000.96
2022-12-06 04:04:00,,0818.4,4.99,0.00,21.4,19.8,00.0,30.4,23.2,15.6,0000.0,0006.52,0001.81,0000.94
2022-12-06 04:05:00,,0818.3,5.00,0.00,21.4,19.8,00.0,30.4,23.2,15.5,0000.0,0006.45,0001.76,0000.93
2022-12-06 04:06:00,,0818.4,4.99,0.00,21.4,19.8,00.0,30.4,23.1,15.5,0000.0,0006.65,0001.80,0000.92
2022-12-06 04:07:00,,0818.2,5.00,0.00,21.4,19.8,00.0,30.4,23.1,15.5,0000.0,0006.89,0001.79,0000.92
2022-12-06 04:08:00,,0818.2,5.00,0.00,21.4,19.8,00.0,30.4,23.2,15.5,0000.0,0007.43,0001.76,0000.91
2022-12-06 04:09:00,,0818.2,5.00,0.00,21.4,19.8,00.0,30.4,23.2,15.6,0000.0,0007.42,0001.73,0000.92
2022-12-06 04:10:00,,0818.2,5.00,0.00,21.4,19.9,00.0,30.4,23.2,15.4,0000.0,0007.55,0001.72,0000.91
2022-12-06 04:11:00,,0818.2,5.01,0.00,21.4,19.9,00.0,30.4,23.2,15.4,0000.0,0007.64,0001.74,0000.91
2022-12-06 04:12:00,,0818.3,5.00,0.00,21.4,20.0,00.0,30.4,23.2,15.4,0000.0,0006.78,0001.72,0000.91
2022-12-06 04:13:00,,0818.4,5.01,0.00,21.4,20.0,00.0,30.4,23.2,15.3,0000.0,0006.58,0001.69,0000.91
2022-12-06 04:14:00,,0818.4,5.00,0.00,21.4,20.1,00.0,30.4,23.3,15.3,0000.0,0006.59,0001.72,0000.91
2022-12-06 04:15:00,,0818.4,5.00,0.00,21.4,20.2,00.0,30.4,23.3,15.2,0000.0,0006.44,0001.79,0000.93
2022-12-06 04:16:00,,0818.4,4.99,0.00,21.4,20.2,00.0,30.4,23.2,15.2,0000.0,0007.37,0001.80,0000.94
2022-12-06 04:17:00,,0818.4,4.99,0.00,21.4,20.2,00.0,30.4,23.2,15.2,0000.0,0008.08,0001.78,0000.94
2022-12-06 04:18:00,,0818.4,5.00,0.00,21.5,20.2,00.0,30.4,23.3,15.2,0000.0,0008.80,0001.73,0000.95
2022-12-06 04:19:00,,0818.4,5.00,0.00,21.5,20.2,00.0,30.4,23.3,15.1,0000.0,0009.03,0001.71,0000.94
2022-12-06 04:20:00,,0818.4,5.00,0.00,21.5,20.2,00.0,30.5,23.3,15.1,0000.0,0009.91,0001.76,0000.95
2022-12-06 04:21:00,,0818.3,5.00,0.00,21.5,20.3,00.0,30.5,23.3,15.1,0000.0,0010.41,0001.82,0000.96
2022-12-06 04:22:00,,0818.4,5.00,0.00,21.5,20.3,00.0,30.5,23.3,15.1,0000.0,0010.27,0001.78,0000.96
2022-12-06 04:23:00,,0818.4,5.00,0.00,21.5,20.3,00.0,30.5,23.3,15.1,0000.0,0010.26,0001.83,0000.96
2022-12-06 04:24:00,,0818.4,5.01,0.00,21.5,20.3,00.0,30.5,23.4,15.1,0000.0,0010.22,0001.86,0000.96
2022-12-06 04:25:00,,0818.4,5.00,0.00,21.6,20.4,00.0,30.5,23.4,15.0,0000.0,0010.08,0001.79,0000.96
2022-12-06 04:26:00,,0818.4,5.00,0.00,21.6,20.5,00.0,30.5,23.5,14.9,0000.0,0009.84,0001.69,0000.95
2022-12-06 04:27:00,,0818.4,5.00,0.00,21.6,20.5,00.0,30.5,23.5,14.9,0000.0,0009.16,0001.60,0000.93
2022-12-06 04:28:00,,0818.4,5.00,0.00,21.6,20.5,00.0,30.5,23.5,14.9,0000.0,0008.48,0001.59,0000.91
2022-12-06 04:29:00,,0818.4,5.00,0.00,21.6,20.6,00.0,30.5,23.5,15.0,0000.0,0007.63,0001.64,0000.90
2022-12-06 04:30:00,,0818.4,5.00,0.00,21.7,20.6,00.0,30.5,23.6,15.0,0000.0,0007.20,0001.67,0000.91
2022-12-06 04:31:00,,0818.4,5.00,0.00,21.7,20.7,00.0,30.6,23.6,15.1,0000.0,0005.52,0001.66,0000.91
2022-12-06 04:32:00,,0818.4,5.00,0.00,21.7,20.7,00.0,30.6,23.6,15.1,0000.0,0004.10,0001.65,0000.92
2022-12-06 04:33:00,,0818.4,5.00,0.00,21.7,20.7,00.0,30.6,23.7,15.1,0000.0,0004.24,0001.67,0000.92
2022-12-06 04:34:00,,0818.5,5.00,0.00,21.8,20.7,00.0,30.6,23.7,15.2,0000.0,0005.14,0001.64,0000.92
2022-12-06 04:35:00,,0818.5,5.00,0.00,21.8,20.8,00.0,30.6,23.7,15.1,0000.0,0005.79,0001.59,0000.92
2022-12-06 04:36:00,,0818.4,5.00,0.00,21.8,20.8,00.0,30.6,23.7,15.1,0000.0,0006.77,0001.58,0000.91
2022-12-06 04:37:00,,0818.4,5.01,0.00,21.8,20.8,00.0,30.7,23.8,15.1,0000.0,0007.48,0001.64,0000.92
2022-12-06 04:38:00,,0818.4,5.00,0.00,21.8,20.8,00.0,30.7,23.8,15.0,0000.0,0007.60,0001.67,0000.94
2022-12-06 04:39:00,,0818.4,4.99,0.00,21.9,20.8,00.0,30.7,23.8,15.0,0000.0,0007.47,0001.67,0000.94
2022-12-06 04:40:00,,0818.4,4.99,0.00,21.9,20.8,00.0,30.7,23.8,15.0,0000.0,0007.36,0001.63,0000.94
2022-12-06 04:41:00,,0818.4,5.00,0.00,21.9,20.8,00.0,30.7,23.8,15.0,0000.0,0007.20,0001.63,0000.92
2022-12-06 04:42:00,,0818.4,5.01,0.00,21.9,20.9,00.0,30.7,23.9,14.9,0000.0,0007.52,0001.60,0000.93
2022-12-06 04:43:00,,0818.4,4.99,0.00,21.9,20.9,00.0,30.8,23.9,14.9,0000.0,0007.63,0001.58,0000.92
2022-12-06 04:44:00,,0818.4,4.99,0.00,21.9,20.9,00.0,30.8,23.9,14.9,0000.0,0007.71,0001.55,0000.91
2022-12-06 04:45:00,,0818.4,4.99,0.00,22.0,20.9,00.0,30.8,23.9,14.9,0000.0,0007.34,0001.51,0000.92
2022-12-06 04:46:00,,0818.4,5.01,0.00,22.0,20.9,00.0,30.8,23.9,14.9,0000.0,0006.98,0001.55,0000.94
2022-12-06 04:47:00,,0818.4,5.01,0.00,22.0,20.9,00.0,30.8,23.9,15.0,0000.0,0006.25,0001.54,0000.94
2022-12-06 04:48:00,,0818.4,5.01,0.00,22.0,20.9,00.0,30.8,23.9,15.0,0000.0,0006.35,0001.51,0000.94
2022-12-06 04:49:00,,0818.4,4.99,0.00,22.0,20.9,00.0,30.8,24.0,15.1,0000.0,0007.19,0001.55,0000.93
2022-12-06 04:50:00,,0818.4,4.99,0.00,22.0,20.9,00.0,30.9,24.0,15.1,0000.0,0007.98,0001.62,0000.93
2022-12-06 04:51:00,,0818.4,5.00,0.00,22.0,20.9,00.0,30.9,24.0,15.1,0000.0,0007.93,0001.62,0000.94
2022-12-06 04:52:00,,0818.4,5.00,0.00,22.0,20.9,00.0,30.9,24.0,15.0,0000.0,0007.74,0001.61,0000.95
2022-12-06 04:53:00,,0818.4,5.00,0.00,22.1,20.9,00.0,30.9,24.0,15.0,0000.0,0007.48,0001.61,0000.95
2022-12-06 04:54:00,,0818.4,5.01,0.00,22.1,20.9,00.0,30.9,24.0,15.2,0000.0,0007.24,0001.60,0000.96
2022-12-06 04:55:00,,0818.3,5.01,0.00,22.1,21.0,00.0,30.9,24.0,15.2,0000.0,0006.78,0001.57,0000.95
2022-12-06 04:56:00,,0818.3,5.00,0.00,22.1,21.0,00.0,30.9,24.0,15.2,0000.0,0006.36,0001.57,0000.95
2022-12-06 04:57:00,,0818.2,5.00,0.00,22.1,21.0,00.0,30.9,24.0,15.3,0000.0,0006.64,0001.55,0000.94
2022-12-06 04:58:00,,0818.2,5.00,0.00,22.1,20.9,00.0,31.0,24.0,15.3,0000.0,0006.72,0001.57,0000.95
2022-12-06 04:59:00,,0818.2,5.00,0.00,22.1,20.9,00.0,31.0,24.0,15.3,0000.0,0006.11,0001.58,0000.96
